Tracking 18851 objects as of 25-Nov-2017
HD Live streaming from Space Station
objects crossing your sky now

WESTFORD NEEDLES

Track WESTFORD NEEDLES now!
10-day predictions
WESTFORD NEEDLES is classified as:


NORAD ID: 18615
Int'l Code: 1963-014DK
Perigee: 2,251.6 km
Apogee: 4,928.9 km
Inclination: 86.5 °
Period: 164.9 minutes
Semi major axis: 9961 km
RCS: 0.075 m2 (small)
Launch date: May 9, 1963
Source: United States (US)
Launch site: AIR FORCE WESTERN TEST RANGE (AFWTR)
aabbcc
Your satellite tracking list
Your tracking list is empty




NASA's NSSDC Master Catalog

Two Line Element Set (TLE):
1 18615U 63014DK  17328.90285646  .00000255  00000-0  43079-1 0  9992
2 18615  86.4651 121.4530 1343833 125.4728  22.4640  8.73236107772060
Source of the keplerian elements: AFSPC